N1CTF-6 Weather Reports


time (UTC)temp
C
wind
direction
speed
KPH
gust
KPH
rain 1hr
cm
rain 24hr
cm
rain mn
cm
humidity
%
barometer
mb
20260508154439 13 117 0.0 4.8 0.00 0.00 0.00 49 1013.1
20260508153439 13 280 3.2 8.0 0.00 0.00 0.00 49 1013.2
20260508152439 12 152 3.2 8.0 0.00 0.00 0.00 51 1013.3
20260508151439 12 40 4.8 9.7 0.00 0.00 0.00 52 1013.6
20260508150439 12 174 0.0 3.2 0.00 0.00 0.00 53 1013.3
20260508145439 11 209 0.0 3.2 0.00 0.00 0.00 55 1013.8
20260508144439 11 219 3.2 4.8 0.00 0.00 0.00 56 1013.7
20260508143440 11 184 1.6 3.2 0.00 0.00 0.00 57 1014.0
20260508142440 11 194 0.0 3.2 0.00 0.00 0.00 57 1013.9
20260508141439 11 190 1.6 6.4 0.00 0.00 0.00 56 1014.0
20260508140439 11 71 3.2 4.8 0.00 0.00 0.00 56 1014.0
20260508135439 11 208 3.2 4.8 0.00 0.00 0.00 56 1013.9
20260508134439 11 34 4.8 8.0 0.00 0.00 0.00 55 1014.0
20260508133439 11 207 4.8 6.4 0.00 0.00 0.00 55 1013.8
20260508132439 11 139 4.8 4.8 0.00 0.00 0.00 55 1013.8
20260508131439 11 178 4.8 6.4 0.00 0.00 0.00 56 1013.9
20260508130439 11 191 0.0 0.0 0.00 0.00 0.00 56 1013.9
20260508125439 10 60 4.8 6.4 0.00 0.00 0.00 57 1014.1
20260508124439 10 224 3.2 8.0 0.00 0.00 0.00 56 1013.7
20260508123439 10 235 6.4 11.3 0.00 0.00 0.00 58 1013.7
20260508122444 10 296 4.8 8.0 0.00 0.00 0.00 57 1013.7
20260508121439 10 148 1.6 6.4 0.00 0.00 0.00 58 1013.8
20260508120439 10 177 3.2 6.4 0.00 0.00 0.00 59 1013.9
20260508115439 9 172 6.4 8.0 0.00 0.00 0.00 60 1013.9
20260508114439 8 131 3.2 6.4 0.00 0.00 0.00 62 1013.9
20260508113439 8 110 4.8 4.8 0.00 0.00 0.00 63 1013.9
20260508112439 8 81 3.2 4.8 0.00 0.00 0.00 65 1013.6
20260508111439 7 114 3.2 4.8 0.00 0.00 0.00 66 1013.8
20260508110439 7 249 4.8 6.4 0.00 0.00 0.00 69 1013.7
20260508105439 6 118 3.2 4.8 0.00 0.00 0.00 70 1013.8
20260508104439 6 87 3.2 3.2 0.00 0.00 0.00 75 1013.9
20260508103439 5 105 4.8 4.8 0.00 0.00 0.00 77 1013.9
20260508102439 5 95 3.2 4.8 0.00 0.00 0.00 78 1013.8
20260508101439 5 68 3.2 3.2 0.00 0.00 0.00 77 1013.8
20260508100439 5 57 3.2 3.2 0.00 0.00 0.00 76 1013.7
20260508095439 5 114 3.2 3.2 0.00 0.00 0.00 76 1013.7
20260508094439 5 87 3.2 3.2 0.00 0.00 0.00 76 1013.5
20260508093439 5 341 3.2 8.0 0.00 0.00 0.00 78 1013.6
20260508092439 5 95 1.6 3.2 0.00 0.00 0.00 77 1013.8
20260508091439 5 146 3.2 3.2 0.00 0.00 0.00 78 1013.9
20260508090439 5 140 1.6 4.8 0.00 0.00 0.00 79 1013.9
20260508085439 5 67 0.0 3.2 0.00 0.00 0.00 79 1014.0
20260508084439 5 31 4.8 6.4 0.00 0.00 0.00 80 1013.8
20260508083439 5 46 3.2 4.8 0.00 0.00 0.00 81 1013.8
20260508082439 5 61 1.6 4.8 0.00 0.00 0.00 81 1014.0
20260508081439 5 287 3.2 3.2 0.00 0.00 0.00 80 1013.8
20260508080439 6 65 1.6 3.2 0.00 0.00 0.00 80 1013.6
20260508075439 6 258 3.2 3.2 0.00 0.00 0.00 80 1013.5
20260508074439 7 76 0.0 1.6 0.00 0.00 0.00 79 1013.5
20260508073439 7 45 3.2 3.2 0.00 0.00 0.00 76 1013.6
20260508072439 7 78 1.6 1.6 0.00 0.00 0.00 73 1013.7
20260508071439 7 60 0.0 1.6 0.00 0.00 0.00 72 1013.6
20260508070439 8 72 1.6 3.2 0.00 0.00 0.00 72 1013.9
20260508065439 8 64 0.0 1.6 0.00 0.00 0.00 72 1013.9
20260508064439 8 168 0.0 1.6 0.00 0.00 0.00 74 1014.1
20260508063439 8 72 0.0 1.6 0.00 0.00 0.00 73 1013.9
20260508062439 8 53 4.8 4.8 0.00 0.00 0.00 67 1014.3
20260508061439 9 56 1.6 3.2 0.00 0.00 0.00 66 1014.2
20260508060439 9 52 4.8 4.8 0.00 0.00 0.00 62 1014.4
20260508055439 9 32 3.2 4.8 0.00 0.00 0.00 58 1014.4
20260508054439 8 177 0.0 1.6 0.00 0.00 0.00 61 1014.1
20260508053439 8 61 1.6 3.2 0.00 0.00 0.00 73 1013.9
20260508052439 8 47 3.2 3.2 0.00 0.00 0.00 71 1014.0
20260508051439 7 55 1.6 3.2 0.00 0.00 0.00 69 1014.1
20260508050439 7 50 1.6 3.2 0.00 0.00 0.00 70 1013.9
20260508045439 7 58 3.2 3.2 0.00 0.00 0.00 67 1014.1
20260508044439 8 66 1.6 3.2 0.00 0.00 0.00 65 1014.1
20260508043439 8 64 1.6 3.2 0.00 0.00 0.00 64 1014.3
20260508042439 8 66 0.0 3.2 0.00 0.00 0.00 66 1014.2
20260508041439 7 78 1.6 1.6 0.00 0.00 0.00 68 1014.3
20260508040439 7 74 1.6 1.6 0.00 0.00 0.00 70 1014.1
20260508035439 7 56 1.6 1.6 0.00 0.00 0.00 68 1014.1
20260508034439 7 67 1.6 3.2 0.00 0.00 0.00 66 1014.3
20260508033439 8 51 1.6 1.6 0.00 0.00 0.00 65 1013.9
20260508032439 8 71 3.2 3.2 0.00 0.00 0.00 69 1014.0
20260508031439 7 70 1.6 3.2 0.00 0.00 0.00 67 1014.4
20260508030439 7 51 3.2 3.2 0.00 0.00 0.00 67 1014.1
20260508025439 7 70 3.2 3.2 0.00 0.00 0.00 69 1014.2
20260508024439 7 61 3.2 3.2 0.00 0.00 0.00 66 1014.0
20260508023439 7 68 1.6 3.2 0.00 0.00 0.00 63 1014.0
20260508022440 7 56 3.2 3.2 0.00 0.00 0.00 63 1014.1
20260508021439 8 65 1.6 3.2 0.00 0.00 0.00 61 1014.0
20260508020439 8 58 1.6 3.2 0.00 0.00 0.00 60 1013.9
20260508015439 8 64 1.6 3.2 0.00 0.00 0.00 60 1013.8
20260508014439 8 73 0.0 3.2 0.00 0.00 0.00 58 1014.1
20260508013439 9 61 1.6 1.6 0.00 0.00 0.00 56 1013.9
20260508012440 10 77 1.6 3.2 0.00 0.00 0.00 54 1013.8
20260508011439 10 76 0.0 1.6 0.00 0.00 0.00 52 1013.6
20260508010439 10 67 1.6 1.6 0.00 0.00 0.00 50 1013.5
20260508005439 11 70 3.2 3.2 0.00 0.00 0.00 50 1013.4
20260508004443 11 74 0.0 1.6 0.00 0.00 0.00 47 1013.2
20260508003439 11 47 3.2 3.2 0.00 0.00 0.00 44 1013.2
20260508002439 11 113 0.0 0.0 0.00 0.00 0.00 44 1013.1
20260508001439 11 93 3.2 3.2 0.00 0.00 0.00 46 1013.2
20260508000441 12 52 0.0 1.6 0.00 0.00 0.00 42 1013.0
20260507235438 12 62 0.0 1.6 0.00 0.00 0.00 39 1012.8
20260507234439 12 95 0.0 4.8 0.00 0.00 0.00 37 1012.7
20260507233438 12 55 0.0 3.2 0.00 0.00 0.00 37 1012.6
20260507232438 12 20 4.8 6.4 0.00 0.00 0.00 38 1012.8
20260507231439 12 44 0.0 4.8 0.00 0.00 0.00 37 1012.7
20260507230438 12 35 6.4 6.4 0.00 0.00 0.00 37 1012.4
20260507225439 12 32 4.8 4.8 0.00 0.00 0.00 38 1012.8
20260507224439 13 44 3.2 3.2 0.00 0.00 0.00 36 1012.9
20260507223439 13 213 0.0 3.2 0.00 0.00 0.00 36 1012.8
20260507222439 13 14 3.2 4.8 0.00 0.00 0.00 36 1013.0
20260507221439 13 54 4.8 6.4 0.00 0.00 0.00 36 1012.6
20260507220439 13 27 8.0 8.0 0.00 0.00 0.00 34 1012.9
20260507215439 13 37 4.8 4.8 0.00 0.00 0.00 37 1012.8
20260507214438 13 278 3.2 3.2 0.00 0.00 0.00 36 1012.9
20260507213439 13 19 8.0 9.7 0.00 0.00 0.00 35 1012.8
20260507212439 13 50 6.4 8.0 0.00 0.00 0.00 35 1012.4
20260507211439 14 73 3.2 6.4 0.00 0.00 0.00 34 1012.3
20260507210439 13 61 3.2 4.8 0.00 0.00 0.00 34 1012.5
20260507205439 13 27 4.8 6.4 0.00 0.00 0.00 35 1012.3
20260507204439 13 355 6.4 6.4 0.00 0.00 0.00 36 1012.5
20260507203438 13 25 3.2 6.4 0.00 0.00 0.00 36 1012.2
20260507202439 14 7 8.0 11.3 0.00 0.00 0.00 36 1012.5
20260507201438 13 260 3.2 6.4 0.00 0.00 0.00 37 1012.3
20260507200439 13 36 6.4 9.7 0.00 0.00 0.00 37 1012.6
20260507195439 13 56 4.8 4.8 0.00 0.00 0.00 39 1012.6
20260507194439 13 197 3.2 6.4 0.00 0.00 0.00 34 1012.5
20260507193439 13 52 6.4 12.9 0.00 0.00 0.00 38 1012.9
20260507192439 12 52 4.8 4.8 0.00 0.00 0.00 40 1012.7
20260507191439 13 26 12.9 14.5 0.00 0.00 0.00 37 1012.5
20260507190439 13 43 11.3 12.9 0.00 0.00 0.00 40 1012.9
20260507185439 13 220 3.2 4.8 0.00 0.00 0.00 38 1013.0
20260507184438 13 20 6.4 6.4 0.00 0.00 0.00 39 1012.8
20260507183438 13 63 4.8 9.7 0.00 0.00 0.00 40 1012.8
20260507182438 13 40 11.3 12.9 0.00 0.00 0.00 38 1012.8
20260507181439 14 80 4.8 9.7 0.00 0.00 0.00 40 1013.0
20260507180439 13 141 3.2 6.4 0.00 0.00 0.00 41 1012.8
20260507175439 13 29 8.0 9.7 0.00 0.00 0.00 40 1013.2
20260507174439 12 36 3.2 6.4 0.00 0.00 0.00 41 1013.1
20260507173439 12 39 9.7 11.3 0.00 0.00 0.00 41 1013.5
20260507172439 12 359 3.2 12.9 0.00 0.00 0.00 42 1013.2
20260507171439 12 29 9.7 9.7 0.00 0.00 0.00 45 1013.5
20260507170439 12 79 4.8 9.7 0.00 0.00 0.00 41 1013.5
20260507165439 12 165 4.8 4.8 0.00 0.00 0.00 42 1013.7
20260507164439 12 199 1.6 12.9 0.00 0.00 0.00 41 1013.8
20260507163439 12 58 8.0 9.7 0.00 0.00 0.00 39 1014.1
20260507162439 12 23 6.4 8.0 0.00 0.00 0.00 41 1014.0
20260507161439 11 91 9.7 11.3 0.00 0.00 0.00 41 1014.1
20260507160439 11 204 4.8 6.4 0.00 0.00 0.00 43 1013.9
20260507155439 11 215 6.4 9.7 0.00 0.00 0.00 45 1013.8